Regional Weather Roundup
Issued by NWS Goodland, KS

Home | Current Version | Previous Version | Graphics & Text | Print | Product List | Glossary On
Versions: 1 2 3 4 5 6 7 8 9 10 11 12 13 14 15 16 17 18 19 20 21 22 23 24 25 26 27 28 29 30 31 32 33 34 35 36 37 38 39 40 41 42 43 44 45 46 47 48 49 50
000
ASUS43 KGLD 140059
RWRGLD

GOODLAND FORECAST AREA HOURLY WEATHER ROUNDUP
NATIONAL WEATHER SERVICE GOODLAND KS
600 PM MST WED DEC 13 2017

...OFFICIAL OBSERVATIONS...

CITY           SKY/WX    TMP DP  RH WIND       PRES   REMARKS
GOODLAND KS    CLOUDY    41  14  33 N7        29.99R
HILL CITY KS   CLOUDY    41  18  39 NW3       30.00R
IMPERIAL NEB   CLEAR     29  14  53 N9        30.02R
MCCOOK NEB     CLEAR     35  18  49 NW8       30.00R
AKRON CO       CLOUDY    41  12  30 N8        30.02R
BURLINGTON CO  CLOUDY    32  12  43 W5        30.03R
LIMON CO       CLOUDY    25   8  48 N8        30.05R
$$

...UNOFFICIAL OBSERVATIONS...

CITY           SKY/WX    TMP DP  RH WIND       PRES   REMARKS
LENORA KS        N/A     41  32  70 N5          N/A
NORTON KS      CLEAR     36  14  41 W7        29.98
TRENTON NEB      N/A     32  32 100 N5          N/A
KIT CARSON CO    N/A     37  12  36 MISG        N/A
YUMA CO        CLOUDY    43  14  31 N9        30.01R
$$



USA.gov is the U.S. government's official web portal to all federal, state and local government web resources and services.